{"data":{"norad_id":62021,"intl_designator":"2024-213P","name":"STARLINK-32520","alt_names":[],"object_type":"PAYLOAD","status":"ACTIVE","operator":null,"country":"US","launch_date":"2024-11-18","launch_site_code":"AFWTR","launch_vehicle":null,"mission":null,"orbit_class":"UNKNOWN","rcs_meters":null,"size_class":null,"mass_kg":null,"dimensions":null,"purposes":["comms"],"wikipedia_slug":null,"has_3d_model":false,"image_url":null,"decayed_at":null,"tle_current":{"epoch":"2026-09-21T17:18:13.789152Z","epoch_age_seconds":80107,"freshness":"FRESH","line1":"1 62021U 24213P   26264.72099293  .00015713  00000+0  47508-3 0  9997","line2":"2 62021  53.1608 335.7688 0001250  72.6446 287.4694 15.34407558103199","mean_motion":15.34407558,"eccentricity":0.000125,"inclination_deg":53.1608,"raan_deg":335.7688,"arg_perigee_deg":72.6446,"mean_anomaly_deg":287.4694,"bstar":0.00047508,"rev_number":10319,"period_min":93.847295817348,"perigee_km":461.8256741085,"apogee_km":463.53587855258,"semimajor_km":6840.8177763305,"source":"CELESTRAK","updated_at":"2026-09-22T09:00:49.484793Z"}}}